Weather History for Tacoma Narrows, WA

Change the Weather History Date:

Saturday, August 3, 2013

  Actual Average Record
Temperature  
Mean Temperature 64 °F -  
Max Temperature 73 °F 74 °F 84 °F (1997)
Min Temperature 57 °F 55 °F 50 °F (2006)
Growing Degree Days 14 (Base 50)    
Moisture  
Dew Point 55 °F    
Average Humidity 75    
Maximum Humidity 94    
Minimum Humidity 51    
Precipitation  
Precipitation 0.00 in - - ()
Sea Level Pressure  
Sea Level Pressure 30.11 in    
Wind  
Wind Speed 3 mph (North)    
Max Wind Speed 8 mph    
Max Gust Speed -    
Visibility 8 miles    
Events      
Averages and records for this station are not official NWS values.
T = Trace of Precipitation, MM = Missing Value Source: NWS Daily Summary

Daily Weather History Graph

Daily Weather History Graph

Search for Another Location

Airport:

Trip Planner

Search our weather history database for the weather conditions in past years. The results will help you decide how hot, cold, wet, or windy it might be!

Date:

Astronomy

Aug. 03, 2013 Rise Set
Actual Time 5:51 AM PDT 8:40 PM PDT
Civil Twilight 5:16 AM PDT 9:15 PM PDT
Nautical Twilight 4:31 AM PDT 10:00 PM PDT
Astronomical Twilight 3:37 AM PDT 10:53 PM PDT
Moon 3:03 AM PDT (8/3) 6:28 PM PDT (8/3)
Length of Visible Light 15h 59m
Length of Day
14h 48m
Waning Crescent, 9% of the Moon is Illuminated
Aug 3
Waning Crescent
Aug 6
New
Aug 14
First Quarter
Aug 20
Full
Aug 28
Last Quarter

Hourly Weather History & Observations

Time (PDT) Temp. Dew Point Humidity Pressure Visibility Wind Dir Wind Speed Gust Speed Precip Events Conditions
12:53 AM 60.1 °F 57.0 °F 90% 30.14 in 10.0 mi Calm Calm - N/A   Overcast
1:53 AM 60.1 °F 57.0 °F 90% 30.13 in 10.0 mi Calm Calm - N/A   Overcast
2:39 AM 59.0 °F 55.4 °F 88% 30.12 in 10.0 mi Calm Calm - N/A   Overcast
2:53 AM 59.0 °F 55.9 °F 90% 30.12 in 9.0 mi Calm Calm - N/A   Overcast
3:01 AM 59.0 °F 55.4 °F 88% 30.12 in 10.0 mi Calm Calm - N/A   Overcast
3:53 AM 59.0 °F 55.9 °F 90% 30.12 in 10.0 mi Calm Calm - N/A   Overcast
4:15 AM 59.0 °F 57.2 °F 94% 30.12 in 10.0 mi Calm Calm - N/A   Overcast
4:53 AM 59.0 °F 55.9 °F 90% 30.12 in 5.0 mi Calm Calm - N/A   Overcast
5:53 AM 57.9 °F 55.9 °F 93% 30.12 in 4.0 mi North 3.5 mph - N/A   Overcast
6:45 AM 59.0 °F 55.4 °F 88% 30.14 in 7.0 mi North 4.6 mph - N/A   Overcast
6:53 AM 59.0 °F 55.9 °F 90% 30.14 in 7.0 mi North 5.8 mph - N/A   Overcast
7:42 AM 59.0 °F 55.4 °F 88% 30.14 in 7.0 mi Calm Calm - N/A   Overcast
7:53 AM 59.0 °F 55.9 °F 90% 30.14 in 3.0 mi NNW 4.6 mph - N/A   Overcast
8:53 AM 59.0 °F 55.9 °F 90% 30.14 in 3.0 mi NNE 5.8 mph - N/A   Overcast
9:53 AM 61.0 °F 55.9 °F 83% 30.14 in 5.0 mi North 6.9 mph - N/A   Haze
10:43 AM 62.6 °F 55.4 °F 77% 30.13 in 5.0 mi North 3.5 mph - N/A   Haze
10:53 AM 63.0 °F 55.9 °F 78% 30.13 in 5.0 mi Variable 3.5 mph - N/A   Haze
11:53 AM 66.0 °F 55.9 °F 70% 30.13 in 6.0 mi West 4.6 mph - N/A   Haze
12:53 PM 69.1 °F 57.0 °F 65% 30.12 in 10.0 mi West 4.6 mph - N/A   Mostly Cloudy
1:53 PM 69.1 °F 54.0 °F 58% 30.13 in 10.0 mi Variable 5.8 mph - N/A   Mostly Cloudy
2:53 PM 72.0 °F 53.1 °F 51% 30.11 in 10.0 mi NNW 8.1 mph - N/A   Mostly Cloudy
3:00 PM 71.6 °F 53.6 °F 53% 30.11 in 10.0 mi Variable 4.6 mph - N/A   Clear
3:53 PM 72.0 °F 54.0 °F 53% 30.09 in 10.0 mi Variable 5.8 mph - N/A   Scattered Clouds
4:53 PM 72.0 °F 54.0 °F 53% 30.08 in 10.0 mi Variable 4.6 mph - N/A   Scattered Clouds
5:53 PM 72.0 °F 54.0 °F 53% 30.07 in 10.0 mi NNE 5.8 mph - N/A   Scattered Clouds
6:53 PM 72.0 °F 54.0 °F 53% 30.06 in 10.0 mi North 4.6 mph - N/A   Clear
7:53 PM 70.0 °F 53.1 °F 55% 30.06 in 10.0 mi North 8.1 mph - N/A   Clear
8:53 PM 66.9 °F 53.1 °F 61% 30.06 in 10.0 mi North 8.1 mph - N/A   Clear
9:53 PM 66.0 °F 54.0 °F 65% 30.07 in 10.0 mi North 5.8 mph - N/A   Clear
10:53 PM 64.0 °F 54.0 °F 70% 30.06 in 10.0 mi NNE 5.8 mph - N/A   Clear
11:53 PM 63.0 °F 54.0 °F 72% 30.07 in 10.0 mi NNE 6.9 mph - N/A   Partly Cloudy